Location: Helsinki
(60.1699°N, 24.9384°E)
Time: 13:17:38
(UTC+02:00)

Transit 4A - Pass Details

Date: 27 October 2020
Orbit: 862 x 982 km, 66.8° (Epoch: 26 November)

Event Time Altitude Azimuth Distance (km) Brightness Sun altitude
Enters shadow 01:56:06 - 312° (NW) 3,720 11.1 -38.4°
Rises 01:56:10 0° 311° (NW) 3,699 - -38.4°
Reaches altitude 10° 01:59:47 10° 292° (WNW) 2,744 - -38.1°
Maximum altitude 02:03:28 16° 256° (WSW) 2,309 - -37.9°
Drops below altitude 10° 02:07:09 10° 221° (SW) 2,715 - -37.6°
Sets 02:10:42 0° 201° (SSW) 3,639 - -37.3°
